Theta_e
303 302 299 298 297 294 293 293 292 290 289 288 287 287 286 286 281 277 276 278 278 279 280 278 280 282 281 279 281 282 281 284 281 278 277 278 280 288 290 291 291 292 292 293 294 294 294 294 293 294 293 293 293 292 292 292 292 292 291 290 290 290 290 290 290 290 290 290 291 291 291 291 291 291
302 301 299 297 294 293 292 292 291 290 289 287 287 288 289 289 285 281 279 279 280 279 280 280 279 281 280 280 280 280 280 284 280 277 277 277 280 287 288 289 290 291 291 291 292 293 293 293 293 293 292 292 292 292 291 291 291 290 290 289 288 288 288 288 289 289 289 289 289 290 290 290 290 291
300 299 297 295 294 292 292 291 290 289 289 288 288 288 289 290 288 284 285 282 282 282 278 280 281 280 280 280 279 279 280 283 279 276 276 277 285 286 286 288 288 289 289 290 290 291 292 292 292 291 292 292 291 291 291 290 290 288 288 287 286 287 287 288 288 288 288 288 288 289 289 289 289 290
298 297 295 293 293 292 292 291 290 289 288 288 288 289 290 290 289 289 289 286 280 282 280 280 280 280 279 279 277 277 279 282 281 275 276 280 283 279 280 286 286 286 286 286 286 288 289 290 290 290 290 290 290 289 289 288 288 287 286 285 285 286 287 287 287 287 287 287 287 287 288 288 289 289
296 295 294 292 292 292 291 290 290 290 290 290 290 290 290 289 289 289 286 281 277 279 281 280 279 279 279 277 278 277 278 277 276 278 276 278 276 276 277 280 284 285 285 285 285 285 285 286 287 288 288 288 288 287 287 286 285 284 284 284 284 285 286 286 286 286 286 286 286 286 286 287 287 288
295 295 293 291 291 292 291 290 290 290 290 290 290 290 289 288 287 288 284 280 279 276 278 278 279 278 279 276 277 277 276 275 276 274 276 276 275 275 275 276 279 284 284 284 284 283 283 283 284 284 285 285 284 283 283 283 283 283 283 283 283 284 284 284 284 285 285 285 285 285 285 286 287 287
294 293 292 291 290 290 290 289 290 290 290 290 289 288 288 287 286 286 284 282 279 276 276 278 277 277 278 277 275 276 277 276 275 274 274 275 275 276 275 276 277 282 282 283 282 282 283 283 282 283 283 282 282 282 281 282 282 282 282 282 282 283 283 283 283 283 283 283 283 284 284 285 286 286
293 293 292 291 290 290 289 289 289 289 289 289 288 288 287 287 286 285 284 284 280 278 275 276 276 277 277 276 276 277 276 275 274 274 274 274 274 274 275 275 276 280 282 282 281 281 281 281 282 282 282 281 281 281 280 280 280 281 281 281 282 282 282 282 282 283 283 282 282 282 283 283 284 285
293 293 292 290 289 290 289 288 288 288 288 288 288 287 287 286 285 284 284 282 281 278 276 276 277 277 276 276 276 276 274 273 273 273 273 273 273 274 274 275 276 280 281 280 280 280 280 280 281 281 280 280 280 279 279 279 279 280 280 280 281 281 281 281 282 282 282 282 282 282 282 282 283 284
293 293 292 290 290 290 289 288 288 288 288 288 287 287 286 286 285 284 282 282 281 279 277 276 275 276 275 274 274 275 275 273 272 272 272 273 273 273 272 273 274 274 273 273 275 277 278 279 279 280 279 279 279 278 278 277 278 279 279 280 280 280 281 281 281 281 281 281 281 282 282 282 282 282
293 293 292 290 290 290 290 289 288 288 288 288 287 287 286 285 284 283 282 281 280 278 276 276 275 275 275 275 273 274 275 274 273 271 270 270 272 272 272 271 272 273 273 275 277 273 273 275 275 278 278 278 278 277 276 276 276 278 279 280 280 280 280 281 281 281 281 281 281 281 282 282 282 282
292 292 292 290 290 291 291 290 289 288 287 287 286 286 285 284 284 282 281 280 279 277 276 275 275 275 274 274 275 275 274 272 272 272 271 270 270 270 271 271 271 271 271 270 271 275 274 275 275 277 277 277 276 275 274 274 275 277 278 279 279 279 280 280 280 280 280 280 281 281 281 281 282 282
291 291 291 290 290 290 290 289 289 288 288 287 286 285 285 284 283 282 280 280 278 277 276 275 275 274 274 274 273 272 272 272 272 272 272 271 271 270 270 270 271 271 269 269 269 269 270 269 268 267 267 270 274 272 273 272 274 276 278 279 279 279 280 280 280 280 280 280 280 280 281 281 281 281
290 290 289 289 288 288 288 288 288 289 289 289 288 286 285 284 283 281 280 279 278 277 276 275 274 273 273 273 273 273 273 274 273 271 271 270 270 269 269 269 269 270 269 268 268 268 269 269 267 267 268 268 271 268 268 268 271 275 278 278 278 279 279 279 279 279 280 280 280 280 280 280 281 281
288 288 288 288 287 287 287 287 288 288 288 289 289 288 287 286 284 281 280 280 279 277 276 276 275 274 273 274 274 274 274 274 272 271 271 271 269 269 268 267 268 269 269 268 267 267 267 268 267 267 267 268 268 268 268 274 275 276 277 277 278 278 278 278 279 279 279 280 280 280 280 280 280 280
288 288 287 287 287 287 287 287 287 287 288 288 288 288 287 287 286 286 283 280 279 278 277 275 275 275 274 274 274 274 274 273 272 272 271 270 269 269 269 268 267 268 270 267 266 267 267 267 267 267 267 267 267 268 271 274 275 277 277 277 277 277 277 278 278 278 279 279 279 279 279 280 280 280
288 287 286 286 286 287 286 286 287 287 286 287 287 287 287 287 287 287 287 285 282 281 279 277 276 276 275 274 274 275 274 275 272 271 271 270 270 270 269 269 267 266 269 268 266 265 267 267 267 266 267 267 267 269 273 274 275 276 277 277 277 277 277 277 278 278 278 278 278 278 279 279 279 279
287 286 286 285 285 285 285 286 286 286 285 285 285 285 285 284 285 286 286 285 285 283 281 279 277 278 278 276 276 276 277 274 272 271 271 271 270 270 269 268 267 267 269 268 267 264 266 266 266 265 266 267 267 266 271 274 275 276 276 276 276 276 276 276 277 277 277 277 278 278 278 278 278 278
286 286 286 285 285 285 285 285 285 285 285 284 283 283 283 282 283 283 283 282 282 281 281 280 280 279 279 278 277 276 276 275 274 274 273 272 271 269 266 266 266 266 268 268 268 265 266 266 265 265 265 266 266 266 272 274 275 276 276 275 275 275 275 276 276 276 276 276 277 277 277 277 278 277
286 285 285 285 284 284 284 285 286 285 284 283 282 281 281 281 281 282 283 285 284 282 280 280 280 279 279 280 277 276 275 275 273 273 271 270 268 267 266 263 264 264 266 267 267 266 264 266 265 264 264 265 264 265 264 271 274 276 275 274 274 275 274 275 275 275 275 276 276 276 277 277 277 276
285 285 285 285 284 284 283 285 286 286 284 282 282 281 280 280 280 280 281 285 286 286 285 284 284 283 283 282 282 281 281 276 274 271 269 268 269 267 265 263 263 264 265 266 267 266 263 265 264 264 263 263 263 263 263 264 271 275 274 273 273 273 273 274 274 274 274 275 275 275 276 276 276 274
284 284 284 284 284 283 283 285 286 286 284 282 281 280 279 279 278 278 280 281 282 285 285 285 284 283 283 283 283 282 281 280 276 272 269 269 269 268 268 265 264 264 265 266 268 265 263 264 264 261 261 262 260 263 262 264 266 272 272 272 272 272 272 272 272 273 273 274 274 274 275 275 275 270
283 283 283 283 284 283 284 286 287 286 283 281 281 280 279 278 278 278 279 279 279 279 279 280 280 281 282 281 280 280 281 280 277 274 272 270 270 269 268 266 265 264 266 267 268 264 262 263 263 262 259 259 260 260 262 263 260 259 261 264 265 270 269 270 270 271 272 272 272 273 274 274 273 269
282 282 282 283 285 285 285 286 287 286 285 281 281 280 279 278 277 278 278 279 279 278 278 278 278 278 279 278 278 278 278 277 274 273 272 271 271 270 269 268 269 268 267 267 268 266 262 263 262 263 261 261 261 260 261 263 260 259 259 261 259 265 266 266 266 268 269 270 271 271 272 273 273 268
281 281 282 282 284 285 285 286 287 286 285 283 280 280 279 279 280 280 278 278 279 277 276 276 276 276 275 275 276 277 276 274 273 273 273 272 272 272 270 269 269 265 264 267 272 268 262 262 260 260 259 258 257 260 262 261 260 259 260 261 260 260 260 260 262 260 264 266 267 269 270 271 272 270
281 281 281 281 283 285 285 286 287 286 285 284 280 280 283 284 283 279 279 278 277 276 275 274 274 273 273 273 274 274 274 273 272 271 271 272 271 273 273 272 269 268 267 268 274 268 264 262 262 261 258 258 259 260 260 259 257 258 259 258 259 259 260 259 259 259 259 259 259 263 267 269 270 270
281 282 282 282 283 285 285 286 287 286 285 283 280 283 285 284 283 280 277 276 275 274 273 273 272 271 272 272 272 272 272 272 271 271 271 271 271 270 269 269 269 270 270 269 271 268 266 262 264 264 261 260 260 260 259 258 258 258 258 258 258 259 260 259 258 258 258 258 259 265 265 265 267 268
282 281 281 281 283 284 285 286 286 286 284 281 283 284 285 284 281 277 276 275 274 273 272 272 271 270 271 271 271 271 272 272 271 270 270 269 268 267 266 267 267 268 268 269 270 268 266 263 263 265 264 263 261 262 261 260 258 257 257 257 257 256 257 258 257 257 258 258 258 258 257 257 258 258
282 282 282 282 283 284 285 286 286 285 284 283 284 284 284 280 277 276 275 274 273 272 271 272 271 270 270 271 271 272 271 268 267 266 265 265 264 264 264 264 263 263 265 267 268 267 265 265 265 263 262 264 263 260 262 260 258 256 257 255 255 256 256 255 255 255 256 256 256 256 256 256 257 258
283 283 282 283 283 284 284 284 284 283 282 283 283 283 282 278 277 276 275 274 273 272 272 271 271 270 270 270 270 269 268 267 266 266 265 265 264 264 264 264 262 262 261 263 264 263 263 264 264 262 261 259 263 261 259 259 257 255 256 256 254 256 256 255 255 255 255 255 254 254 254 255 257 257
282 282 281 282 283 283 283 284 284 283 283 282 281 281 280 278 276 275 275 274 273 273 272 272 271 270 270 270 270 269 268 266 266 267 266 266 264 265 266 265 261 260 260 260 261 262 262 261 261 263 261 257 258 259 257 258 257 254 254 254 255 254 252 253 254 255 254 254 254 255 254 254 255 257
281 281 281 281 282 282 282 282 283 282 282 281 280 280 279 277 276 275 276 275 274 273 273 272 271 270 270 270 270 269 268 267 266 266 266 266 264 265 265 264 261 260 259 259 259 259 259 259 261 261 261 261 260 256 255 257 258 257 254 253 254 254 253 253 254 252 253 253 253 253 253 254 254 253
280 280 279 279 279 280 279 280 280 281 281 280 280 279 279 277 275 274 274 273 273 273 273 272 271 270 270 270 270 269 268 267 266 267 267 266 264 264 265 265 262 260 259 257 256 256 257 257 258 257 256 256 256 256 257 254 256 255 255 253 252 253 251 252 252 253 251 253 252 251 254 253 253 256
279 278 278 278 278 278 278 278 279 279 279 280 279 278 278 277 275 274 274 274 273 273 273 272 271 271 270 270 269 269 268 267 266 266 267 265 265 263 264 265 263 262 261 259 257 256 256 257 257 257 256 255 254 256 258 260 258 253 253 251 252 253 253 251 252 251 251 252 252 253 253 254 254 253
278 277 277 277 278 278 278 278 278 279 279 279 279 278 277 277 276 275 274 274 274 274 273 272 272 271 270 270 269 268 268 267 266 265 266 265 265 265 265 265 264 261 261 259 258 257 257 256 257 257 257 256 257 257 259 259 257 255 250 251 252 253 252 251 251 250 252 252 252 252 254 252 253 254
278 278 277 277 277 278 278 278 278 278 278 279 279 278 277 276 276 275 274 275 274 274 273 272 272 271 270 270 269 269 269 267 265 265 264 264 264 265 265 265 265 262 261 260 258 257 256 256 257 258 258 256 256 260 260 264 262 258 256 251 249 252 252 250 251 252 253 250 252 250 251 251 254 255
278 278 278 277 277 277 277 278 279 278 278 278 279 278 277 276 277 277 276 276 275 274 274 274 273 272 271 270 269 269 269 267 264 264 264 264 264 265 265 264 264 263 261 261 259 257 257 256 257 259 259 258 257 259 262 256 262 264 258 258 250 250 250 248 249 249 251 252 252 252 252 250 252 255
279 278 278 278 277 277 278 278 278 278 278 278 278 278 278 278 278 277 277 276 275 275 275 274 274 273 272 271 269 268 268 267 265 264 264 263 263 263 264 264 263 263 262 262 258 257 257 256 256 259 261 260 259 260 261 258 255 260 265 259 257 252 252 251 250 251 251 250 252 252 250 251 255 255
280 278 278 278 278 277 277 278 278 278 278 278 278 278 278 279 278 278 277 277 276 276 275 275 274 273 272 271 270 269 268 266 264 264 264 263 263 263 263 264 263 263 263 260 258 256 256 256 256 258 261 262 263 263 264 262 259 256 260 267 258 253 252 254 254 250 249 250 249 251 252 254 258 264
280 279 279 278 278 278 278 278 278 278 278 278 278 278 278 278 279 278 278 277 277 276 276 275 275 274 272 271 270 269 269 266 264 264 264 263 263 264 264 264 264 263 263 260 256 256 255 255 256 257 260 263 260 259 258 257 251 249 252 263 266 260 256 254 254 251 248 251 248 249 251 251 251 252
281 280 280 279 279 279 278 278 278 278 278 278 278 278 279 279 278 279 279 278 278 277 276 276 275 274 272 271 270 270 269 267 265 265 265 264 263 263 264 263 263 263 262 261 257 255 255 256 258 260 258 253 254 255 256 257 258 254 253 257 267 267 264 261 256 254 251 249 252 250 249 251 250 251
281 281 281 280 280 279 279 279 279 279 279 278 278 278 278 278 278 279 279 279 279 278 277 277 276 275 273 272 271 270 270 268 265 265 266 265 263 263 263 263 263 263 262 262 260 259 258 258 258 258 255 254 254 258 260 260 261 257 252 250 255 266 268 266 264 262 255 252 252 250 250 250 249 249
282 282 282 281 281 281 280 280 280 279 279 279 278 278 277 277 278 278 278 278 279 279 278 278 277 276 274 273 272 271 270 269 267 266 266 266 264 263 263 263 263 263 262 263 260 258 256 257 257 256 255 256 256 258 260 260 260 257 251 251 253 254 259 267 268 267 266 265 265 261 257 253 251 250
283 283 283 283 282 281 281 281 281 281 280 280 279 278 278 277 277 278 278 278 279 279 279 279 278 277 276 274 273 272 271 271 269 267 266 266 265 264 263 262 262 262 261 260 256 256 256 256 256 256 255 255 256 256 258 258 258 258 256 252 249 252 257 255 257 262 266 268 268 268 268 267 265 266
284 284 283 283 283 283 282 282 282 281 281 281 280 279 279 278 278 279 279 279 279 279 279 279 279 278 277 275 273 271 271 271 269 268 267 266 265 264 263 262 261 261 260 259 256 254 254 255 255 256 256 256 256 256 258 258 259 256 253 252 253 252 251 252 255 257 257 258 264 269 269 269 269 269
Wind_Speed
14 13 14 12 11 9 9 8 8 9 9 11 13 13 15 13 13 9 8 10 7 9 8 6 6 6 6 5 4 6 5 6 6 3 3 3 3 6 7 8 8 7 3 1 3 3 4 3 2 2 2 2 3 3 4 5 5 6 7 7 8 9 10 10 11 12 13 14 15 15 15 16 16 17
13 12 12 10 8 9 9 9 10 10 11 11 11 10 7 9 14 9 11 9 8 4 9 5 6 6 6 5 7 7 7 9 7 4 3 3 3 7 7 7 7 7 5 4 2 4 3 3 3 2 1 2 2 3 4 4 5 5 6 7 8 8 9 10 11 12 13 14 14 15 15 16 16 16
12 13 13 10 9 9 10 9 9 8 10 10 10 8 7 5 9 12 8 6 4 8 10 9 6 8 6 6 6 5 6 8 8 6 4 3 6 8 6 8 8 7 7 7 6 4 3 2 2 2 2 3 3 3 4 4 5 5 6 6 7 8 9 10 11 12 13 13 14 15 15 15 15 16
12 13 13 11 10 9 8 9 9 10 9 9 9 8 7 5 7 9 6 7 6 6 7 8 7 9 9 7 7 6 6 7 11 5 5 5 8 5 3 7 8 7 7 6 6 8 7 5 4 3 3 3 3 3 4 4 5 5 5 6 6 8 9 10 11 12 12 13 13 14 14 15 15 16
13 13 13 11 9 10 11 9 9 9 9 8 8 7 7 7 6 7 6 7 7 3 2 6 6 6 9 6 8 8 7 6 5 6 4 5 6 4 3 3 7 8 7 6 6 7 8 8 8 7 6 5 5 5 5 6 6 5 5 6 7 8 9 10 11 11 12 12 13 13 14 14 15 15
12 13 13 11 10 10 11 10 10 10 10 9 9 9 9 8 6 6 5 6 6 7 5 6 6 8 10 8 6 10 9 7 6 6 5 5 5 4 3 3 3 7 7 7 7 7 7 8 7 7 7 7 7 7 6 6 5 5 5 6 7 8 9 9 10 11 11 12 13 13 13 14 15 15
12 13 13 13 12 10 10 10 10 10 11 9 10 8 5 7 7 5 7 9 6 10 8 6 8 8 8 8 8 7 7 6 7 7 6 6 5 3 3 3 1 6 6 7 7 7 7 7 7 7 7 7 7 6 6 6 5 5 6 6 7 7 8 8 10 10 11 12 12 12 13 14 15 15
14 15 14 13 14 14 14 12 11 10 10 9 8 9 7 7 8 5 6 7 10 5 10 8 8 7 8 5 7 6 6 8 6 5 5 5 5 4 4 3 2 4 8 7 7 6 7 7 7 7 7 7 7 7 6 6 5 5 5 6 6 7 7 8 10 10 11 11 12 12 13 14 15 15
16 16 16 16 15 15 15 12 12 11 13 11 10 10 8 7 6 6 7 7 10 11 9 9 6 6 5 4 7 8 9 6 5 4 6 5 6 5 4 3 3 5 8 7 7 6 6 6 6 6 6 6 7 6 6 5 5 4 4 5 5 6 7 9 10 10 11 11 11 12 13 13 14 15
15 16 16 16 16 16 16 15 13 13 14 12 12 12 9 7 7 8 7 8 9 11 8 12 10 8 9 7 7 8 8 9 8 6 4 4 4 6 5 4 3 1 2 2 2 5 5 5 6 6 6 6 6 6 5 4 4 4 4 4 4 5 7 8 9 9 10 10 11 12 12 13 14 14
14 14 14 16 17 17 16 16 16 15 13 12 12 12 12 10 9 8 7 9 10 9 10 6 6 9 7 8 10 8 7 7 7 9 8 5 4 5 6 6 4 2 3 4 6 4 3 4 3 4 5 5 6 6 5 4 3 3 3 3 4 5 6 8 8 9 10 10 11 12 12 13 14 14
13 14 14 15 17 17 16 16 15 16 15 11 11 9 11 11 11 10 8 9 11 9 8 10 11 7 9 7 4 7 8 8 5 8 7 10 9 7 5 5 6 5 5 3 3 4 5 5 4 2 4 6 7 6 4 3 2 2 2 3 4 4 6 7 8 9 10 10 11 12 12 13 14 14
12 12 12 13 14 16 18 20 19 18 17 15 13 11 12 12 11 10 10 10 11 7 8 8 7 9 8 7 9 10 12 15 13 10 6 6 6 6 5 3 3 4 5 4 4 3 4 4 3 3 1 1 5 4 5 1 1 0 1 2 3 4 6 7 8 9 9 10 11 11 12 13 13 14
12 12 12 12 17 19 19 19 19 19 18 18 16 15 14 14 12 13 12 11 11 10 9 10 11 10 10 11 12 10 10 7 7 9 8 8 7 6 4 2 3 5 5 6 6 5 3 5 3 4 4 2 3 2 2 1 3 2 1 2 2 4 5 6 7 8 9 10 11 12 12 13 14 14
14 12 11 10 14 16 16 17 20 20 21 20 18 20 21 19 18 15 13 12 12 13 9 8 9 9 10 10 9 9 11 10 11 11 11 9 9 10 10 8 3 5 8 6 5 6 3 5 5 4 5 4 4 4 3 4 2 1 1 0 2 4 5 6 7 9 10 10 11 11 12 13 13 13
13 14 14 12 13 13 15 15 16 18 21 20 19 19 20 20 22 23 21 16 11 12 11 8 9 10 10 12 10 11 10 11 9 8 9 10 11 10 9 6 7 6 11 8 6 6 2 4 5 5 5 4 4 4 5 3 2 1 2 0 2 2 4 5 7 9 10 10 11 11 12 13 13 13
13 12 12 12 13 12 19 15 14 13 14 16 18 18 18 18 18 17 17 21 21 18 16 17 16 15 11 12 14 14 14 12 12 10 10 9 9 8 8 7 4 4 10 7 5 5 3 5 5 6 4 4 4 4 6 3 3 2 2 0 0 2 4 6 8 9 9 10 10 11 12 12 12 13
12 13 14 14 13 12 15 14 14 14 13 12 11 12 12 12 15 17 17 16 12 13 13 16 16 12 14 16 16 15 12 15 14 13 11 10 10 10 8 3 4 3 9 10 7 3 4 4 5 6 4 4 3 3 4 4 4 4 2 1 1 2 4 6 7 8 8 9 10 10 11 11 12 13
10 12 13 12 13 15 16 15 17 16 15 14 12 11 12 11 11 11 11 11 10 10 7 10 11 14 15 11 11 13 14 15 13 13 14 14 10 8 7 6 4 4 4 4 6 6 4 4 5 5 4 4 4 2 2 2 4 6 4 2 3 3 5 6 7 7 8 9 9 11 11 11 12 12
8 9 11 11 11 12 12 16 22 17 14 14 13 14 12 11 9 9 8 12 10 9 9 9 10 12 13 12 14 15 13 9 8 9 9 10 9 9 7 6 3 3 4 4 5 3 3 4 6 3 2 3 3 1 1 4 7 7 5 4 4 5 5 6 7 7 8 9 10 11 11 11 12 10
10 11 11 11 11 12 12 17 22 22 19 14 14 13 13 11 10 8 6 11 11 10 10 11 12 14 16 17 19 21 21 14 13 11 11 9 11 10 9 4 5 6 5 5 4 4 3 5 5 4 1 1 1 1 1 2 7 7 5 6 6 5 5 6 7 8 8 9 10 11 11 11 11 9
9 11 16 13 12 12 12 19 23 24 19 16 15 14 14 14 12 9 7 7 8 13 13 14 15 17 18 19 21 23 22 22 16 15 14 13 11 10 10 9 5 3 4 6 6 3 3 5 4 3 1 2 2 0 0 4 2 3 5 8 7 6 5 6 6 8 9 10 11 11 11 12 10 4
8 9 12 16 14 13 13 22 23 25 20 15 16 16 15 15 14 13 12 12 11 9 9 8 10 10 14 13 12 14 24 23 16 10 11 12 12 12 9 8 7 2 5 8 9 7 3 7 4 5 3 1 2 1 2 2 1 1 2 4 4 5 6 6 7 8 9 10 11 11 11 11 10 4
8 9 9 12 16 17 20 23 24 23 19 14 13 13 14 15 15 12 12 11 11 11 10 9 10 10 10 10 10 11 13 13 12 8 10 12 12 10 10 10 10 6 5 8 14 8 3 4 6 3 3 3 2 2 1 3 1 2 3 5 3 4 5 6 6 9 10 10 11 11 11 11 10 4
10 10 10 9 14 19 21 24 24 23 18 13 13 14 15 12 11 13 11 12 13 11 10 9 9 9 8 9 9 10 10 10 10 7 8 10 9 10 11 9 9 3 2 5 18 7 6 5 5 3 0 1 1 3 2 2 1 1 3 5 3 1 2 3 2 3 7 10 11 12 11 11 11 7
9 10 9 8 14 19 19 21 22 22 19 17 11 10 8 16 21 14 10 11 10 10 9 9 9 9 9 9 9 9 10 10 10 7 7 7 5 4 6 11 11 7 5 7 21 9 8 5 8 7 2 3 2 2 4 2 1 1 4 3 3 1 0 2 3 3 4 4 5 7 9 12 11 11
10 7 7 8 14 17 19 19 21 20 19 16 10 12 15 17 19 13 10 10 10 10 9 10 10 9 9 10 10 9 9 9 8 7 6 6 5 6 6 5 2 2 5 10 12 9 5 5 7 10 7 4 5 2 0 3 2 2 3 2 1 0 0 0 2 4 4 4 4 10 10 10 11 12
10 10 9 9 16 17 18 17 18 17 17 11 14 16 17 19 16 11 10 10 10 11 10 10 10 10 9 8 9 9 9 9 8 7 6 7 7 7 7 7 6 5 7 10 10 8 6 6 7 5 6 9 7 6 5 0 2 3 4 0 0 1 1 1 3 2 3 3 4 5 4 6 6 6
9 9 14 17 19 18 18 16 17 16 16 15 16 17 19 18 10 10 11 11 11 12 12 12 10 9 10 9 9 8 8 7 8 7 6 7 7 8 9 9 7 6 4 3 5 6 6 7 8 6 4 5 6 4 5 5 5 4 4 3 0 1 3 2 3 3 4 2 2 2 2 4 4 4
14 18 19 21 20 20 18 14 11 10 11 16 17 17 17 11 10 10 11 11 12 12 11 11 12 10 8 7 7 7 8 9 9 9 8 9 7 7 8 8 7 6 8 6 4 3 4 5 7 8 5 2 2 6 5 7 2 2 3 4 2 0 4 4 4 4 3 3 3 2 3 2 4 3
12 14 15 12 14 10 17 16 14 12 12 12 11 10 11 10 10 10 11 13 13 11 10 9 8 8 7 7 9 9 9 8 7 8 9 9 8 8 7 8 6 5 4 5 5 5 4 4 5 7 7 4 2 3 5 4 5 4 4 3 5 5 3 3 3 4 3 3 3 3 2 2 3 4
10 10 11 12 11 10 11 11 8 8 9 11 11 10 9 8 8 9 9 8 7 7 8 8 8 8 9 10 9 8 8 8 8 7 8 10 11 8 8 7 6 5 4 3 4 5 6 4 3 1 1 7 6 4 4 4 5 5 4 5 5 4 1 5 5 5 4 1 3 4 4 3 3 3
9 9 10 10 10 10 12 11 11 11 11 11 11 12 11 9 9 10 10 11 11 10 10 11 11 11 10 9 8 9 9 9 9 8 7 8 12 7 7 9 9 12 11 8 3 4 5 5 6 5 5 5 3 9 9 4 5 5 6 6 5 5 4 4 4 5 2 1 1 2 5 4 3 4
10 10 10 10 11 12 12 13 13 13 13 12 12 11 11 10 10 11 11 10 10 10 11 10 11 12 11 11 11 11 10 8 8 9 9 10 10 11 11 9 9 9 10 12 8 6 4 3 4 4 5 4 2 4 5 6 5 6 6 4 6 6 4 5 5 4 4 2 0 2 4 5 4 4
11 11 11 11 10 11 12 12 13 12 12 13 12 12 12 11 11 12 11 11 10 10 10 10 10 11 12 12 12 12 12 12 11 9 9 8 11 11 10 10 9 12 11 12 6 6 5 5 7 6 3 3 2 3 9 8 4 6 3 5 5 6 4 5 4 4 3 2 1 0 3 3 4 2
10 11 11 11 12 13 13 14 13 13 13 13 13 12 12 13 13 13 13 12 11 11 11 11 12 12 12 12 12 12 12 11 15 13 13 11 12 9 8 10 8 8 7 11 8 6 6 7 10 9 7 3 2 4 3 16 17 7 9 5 5 6 4 5 4 4 5 3 2 3 1 2 4 4
12 12 12 13 12 13 14 14 14 14 14 14 14 14 14 14 13 12 10 10 10 11 12 11 11 12 12 12 11 11 11 12 14 13 12 12 14 11 11 9 8 8 8 6 7 7 7 9 11 7 8 6 6 10 7 3 13 15 8 8 4 5 6 6 5 6 6 5 4 5 5 2 3 5
14 13 13 13 14 13 12 12 13 13 13 13 13 12 11 10 9 10 9 11 12 11 12 13 12 12 12 12 12 12 11 10 11 14 14 18 17 15 14 12 11 8 6 8 12 8 7 10 12 9 9 11 9 8 7 2 1 10 19 10 9 6 6 7 7 7 7 5 6 5 3 2 7 4
13 13 15 14 14 13 14 13 12 12 11 10 11 11 11 11 11 11 11 12 13 13 12 12 12 12 13 12 11 12 13 13 16 17 17 15 19 18 13 11 11 8 8 10 9 7 8 9 12 11 11 10 12 9 8 7 8 2 11 23 8 8 7 8 8 6 7 7 5 2 2 4 7 12
13 11 11 11 11 11 11 10 11 11 11 12 12 12 12 12 12 12 12 13 13 13 12 12 12 12 12 12 12 11 11 15 12 10 15 13 14 14 12 10 10 10 9 10 10 9 10 14 13 13 12 7 4 5 4 3 2 0 2 11 22 14 9 9 8 8 4 6 5 5 1 1 1 2
11 11 11 10 10 10 12 12 11 11 13 13 13 13 13 12 13 13 13 13 12 13 13 13 13 13 12 13 13 14 14 11 6 11 15 13 14 13 13 11 10 11 12 12 12 16 17 14 10 6 4 5 3 4 3 1 4 3 5 6 15 19 14 13 9 8 5 6 7 6 4 3 1 3
12 11 10 10 12 11 11 12 12 12 12 11 11 12 12 12 12 14 13 14 14 13 12 13 13 13 13 13 13 13 13 11 10 14 13 12 12 12 13 12 12 12 13 14 15 15 7 7 9 9 5 5 5 7 10 9 9 5 3 3 3 12 17 16 14 11 8 9 7 5 2 2 2 1
12 12 13 13 13 13 13 13 12 12 12 11 11 11 11 12 11 13 12 13 14 14 14 13 13 13 13 12 13 14 13 12 14 16 15 14 15 15 15 15 14 14 14 11 4 6 9 9 9 9 7 7 7 7 11 10 8 5 3 3 6 5 5 11 16 17 16 15 12 7 5 7 7 2
14 15 15 14 14 14 13 13 13 12 12 11 11 11 12 12 13 14 14 14 14 15 14 13 13 13 14 13 13 9 12 14 14 15 16 15 15 15 14 14 13 11 10 8 6 7 8 9 9 10 11 11 9 9 12 7 8 6 6 4 2 5 9 5 4 5 9 16 19 17 15 12 9 6
14 14 14 13 13 12 12 13 13 12 12 12 12 13 13 13 13 13 14 14 14 15 14 14 14 14 14 14 14 16 16 13 13 12 12 12 12 13 12 12 12 11 11 10 9 8 8 8 8 8 8 8 8 10 9 8 9 6 6 5 6 5 6 6 8 9 7 6 11 18 17 16 16 16
Wind_Direction
193 193 188 190 185 179 173 167 164 156 150 158 161 165 162 162 135 159 193 211 183 191 174 161 185 159 149 146 153 146 130 138 124 114 95 91 64 97 94 86 85 81 84 154 151 164 157 153 148 123 108 61 54 39 34 28 26 27 26 19 11 8 7 7 6 5 4 1 359 357 357 355 353 349
190 190 187 185 176 173 172 172 166 160 160 160 169 173 171 158 157 160 166 198 186 141 176 177 153 163 153 140 142 140 137 151 133 132 117 103 109 116 120 121 116 101 81 71 128 159 138 140 143 116 79 71 47 39 39 37 34 35 30 19 13 8 7 9 9 6 3 1 359 357 355 354 351 348
183 184 183 179 173 165 168 161 161 159 159 164 166 167 160 182 149 156 156 141 203 163 177 184 151 143 140 134 132 137 152 153 141 141 137 138 131 114 126 130 126 118 103 91 64 61 97 98 125 119 109 76 62 52 52 50 46 41 38 26 14 10 10 11 9 6 2 1 359 357 355 352 348 346
176 172 174 172 167 162 153 154 158 160 162 160 163 161 157 157 154 146 147 135 152 176 174 151 132 142 140 144 144 146 146 153 148 143 147 148 115 80 89 125 123 116 112 105 85 68 76 83 99 83 76 82 75 72 69 64 58 56 43 31 17 13 14 13 9 5 3 0 360 357 353 348 346 345
165 169 164 161 157 154 154 157 154 152 153 157 158 154 151 147 145 141 126 117 116 76 111 132 141 129 131 140 155 142 148 142 141 145 144 115 112 104 89 107 131 126 120 115 102 91 80 75 71 72 76 79 75 77 77 77 73 60 46 34 22 18 15 13 8 3 2 0 358 354 350 347 345 346
168 165 161 158 156 162 156 155 158 154 155 162 159 165 158 152 165 156 111 126 126 143 125 129 107 145 160 148 171 157 152 150 144 142 136 117 119 120 106 100 130 142 132 123 118 112 107 99 97 95 94 97 94 92 89 87 82 64 43 34 24 20 17 11 5 0 0 357 355 352 348 346 345 346
169 168 169 165 158 155 154 162 160 158 163 163 162 157 147 151 162 160 132 135 122 140 149 135 146 154 166 162 167 157 146 147 147 142 141 136 125 118 135 136 147 155 149 143 133 127 124 122 123 119 113 111 110 104 99 93 81 65 49 37 25 19 10 5 1 358 357 355 353 349 347 345 346 347
174 175 170 171 165 163 163 165 165 169 162 160 155 155 160 162 167 154 146 141 131 141 132 170 157 156 148 132 147 143 136 142 148 145 129 121 131 142 148 157 152 177 161 153 144 141 140 142 138 135 124 116 113 110 101 88 74 61 52 38 26 11 2 358 356 355 353 352 350 348 347 346 346 347
176 175 178 171 168 168 165 167 168 169 169 163 158 165 164 164 155 138 136 130 135 135 134 133 136 132 128 110 147 150 145 144 132 131 142 150 146 150 160 144 174 183 171 166 161 155 154 147 144 141 133 120 118 116 107 92 78 62 54 40 21 3 356 354 352 349 349 347 347 347 346 346 346 347
180 179 177 171 171 170 170 173 170 171 172 166 164 161 160 155 145 138 124 128 140 137 126 141 139 161 156 147 160 167 153 152 145 137 133 134 148 153 155 169 175 160 114 111 160 171 156 150 152 149 142 125 117 122 125 113 85 65 54 40 17 359 351 348 344 342 343 345 346 346 346 346 347 347
182 182 178 174 174 175 174 168 171 169 170 172 170 163 155 147 145 140 137 137 137 130 131 125 128 143 157 158 158 170 159 154 160 155 151 164 175 170 164 166 175 152 159 177 173 148 137 172 149 166 152 142 130 126 130 120 92 61 55 32 13 354 345 339 335 338 343 347 347 346 346 346 347 347
183 182 181 179 179 178 175 171 170 167 167 167 162 160 145 146 147 146 143 140 140 135 131 144 154 158 147 144 124 135 153 152 177 187 172 172 174 182 177 176 167 170 155 193 217 198 189 184 173 139 132 149 140 126 108 125 100 73 36 31 4 348 332 328 333 339 346 348 347 346 346 346 347 346
183 183 184 184 183 181 175 172 170 173 167 162 163 164 153 152 152 148 150 148 144 135 136 124 132 139 154 163 152 166 180 190 186 169 156 165 158 154 157 179 176 171 166 175 187 207 174 137 122 111 83 237 137 123 122 90 129 214 12 23 357 329 323 327 334 342 347 348 349 347 346 346 346 346
184 182 182 186 185 176 168 167 169 169 171 172 167 163 160 158 158 159 156 156 159 152 148 153 155 158 171 176 182 179 183 155 125 153 166 164 154 139 141 138 199 177 161 169 196 210 171 155 147 145 180 212 136 129 91 209 219 237 15 27 337 324 323 328 337 344 348 349 350 349 347 345 345 345
179 180 179 177 178 173 165 165 168 170 172 175 173 168 168 166 162 159 162 165 165 167 158 150 162 168 164 176 175 175 167 173 168 173 173 158 153 170 168 187 172 194 171 178 179 219 180 157 173 182 195 181 151 152 195 210 173 173 121 21 328 322 323 333 342 348 352 352 352 350 346 344 344 344
178 177 176 175 174 178 172 165 169 174 177 177 174 174 175 174 173 169 165 163 169 170 159 163 179 157 173 164 164 171 170 173 164 169 172 172 171 168 183 174 186 179 169 166 172 206 161 158 165 184 202 180 163 175 203 189 165 173 149 295 333 324 337 347 348 352 354 353 351 348 345 344 343 342
179 173 175 176 174 178 165 161 168 170 175 177 173 174 177 180 181 184 183 176 172 169 168 175 177 185 150 159 183 185 179 165 165 162 175 179 179 177 179 182 152 171 170 148 165 187 188 163 174 196 196 167 166 196 187 168 185 185 170 127 2 354 3 354 353 355 355 353 350 347 345 343 341 341
181 175 178 175 172 173 169 166 165 166 167 167 167 171 178 181 184 180 179 180 174 176 174 169 179 179 173 178 184 181 161 162 172 172 179 173 172 180 179 131 135 139 174 174 149 153 198 178 164 205 193 149 165 172 191 196 203 188 174 179 83 36 15 360 355 356 355 353 349 345 346 344 342 342
189 179 179 180 175 173 173 170 166 164 165 164 166 169 175 180 179 176 176 179 173 172 172 180 175 170 181 182 162 164 173 179 176 177 175 170 158 117 89 66 73 121 178 144 148 187 162 159 173 207 167 155 158 163 194 217 213 199 184 140 82 52 22 5 356 357 354 354 348 347 348 345 343 345
185 186 177 174 174 179 181 169 163 159 156 159 163 169 172 171 172 180 182 174 169 169 162 166 164 171 177 162 161 165 165 154 128 109 96 99 115 127 129 146 166 163 192 179 172 133 185 181 178 175 134 140 156 122 74 263 231 204 173 116 85 53 28 3 357 359 358 355 350 349 350 346 344 349
178 181 180 176 173 173 180 172 162 155 154 159 164 165 168 168 166 169 158 159 140 131 132 139 148 157 158 155 159 163 161 154 143 126 124 151 149 145 152 157 161 200 170 201 183 121 161 187 156 127 87 131 185 204 187 273 264 203 151 111 82 54 23 3 3 2 0 358 353 352 351 345 344 351
183 185 178 173 172 175 177 174 165 160 157 162 165 164 162 166 172 168 157 147 149 138 128 131 140 150 155 154 159 163 163 159 153 151 165 168 156 166 169 167 166 126 184 205 165 138 209 142 135 112 7 15 322 341 205 218 281 148 106 98 74 47 19 6 9 6 3 359 355 352 348 345 347 1
183 181 182 179 177 177 175 176 169 164 164 163 167 167 164 169 177 175 161 154 147 144 136 137 136 143 149 150 155 165 165 165 169 174 156 156 166 168 168 138 117 82 249 205 175 175 194 141 191 139 103 303 278 113 261 194 178 131 86 59 48 35 15 8 11 8 2 359 354 350 346 345 351 339
189 186 182 183 180 176 175 177 173 170 167 164 164 163 171 173 181 162 158 158 153 152 151 146 146 146 148 148 152 160 164 168 177 170 162 169 169 166 162 164 170 174 187 164 175 174 141 151 161 178 132 134 222 224 207 208 208 167 138 95 66 8 1 9 1 359 355 355 351 348 344 345 351 343
185 188 188 183 182 178 177 177 174 169 165 156 165 176 184 184 143 137 149 151 146 143 139 140 139 141 143 151 157 162 165 169 179 169 169 178 176 162 161 165 187 187 202 192 172 148 160 154 146 134 178 86 222 134 209 179 274 149 128 114 109 349 19 346 352 330 341 347 347 346 343 344 342 348
191 190 182 181 182 177 177 177 172 166 163 159 165 177 139 126 143 153 148 143 143 141 140 140 142 145 151 156 162 163 166 173 176 167 168 176 168 159 165 169 172 185 201 184 177 165 130 165 168 150 148 129 243 183 153 204 260 58 91 100 119 208 341 322 330 315 327 316 336 334 338 338 338 342
186 172 169 164 173 176 176 177 170 164 155 157 165 155 141 142 138 131 144 143 139 142 144 146 154 159 159 161 166 166 166 172 170 159 155 143 116 92 74 60 64 140 124 158 176 163 143 130 162 164 169 159 142 229 132 145 146 94 108 113 118 283 199 164 289 289 303 318 318 334 342 335 337 339
175 170 171 166 167 171 174 172 167 160 158 162 159 158 145 143 141 142 147 151 152 147 149 157 161 169 172 159 163 171 167 166 157 131 122 107 104 99 82 68 65 78 135 157 165 167 149 132 166 182 155 166 166 168 187 4 100 152 165 211 131 228 259 291 280 284 295 308 322 336 341 335 332 341
172 159 156 157 166 166 168 170 166 164 164 155 163 160 152 151 154 156 160 158 154 159 169 173 168 169 176 171 161 153 142 117 104 108 87 85 88 90 84 72 66 54 59 105 142 153 149 148 160 149 159 207 168 188 134 170 151 185 171 142 257 237 232 272 243 267 290 298 300 325 303 295 309 316
151 154 157 161 165 168 170 170 174 175 176 169 170 166 156 162 164 168 163 163 167 174 171 171 175 168 153 154 154 138 133 142 149 138 135 130 124 125 121 101 56 38 20 24 57 87 112 126 143 154 154 206 213 150 151 126 144 185 169 177 191 345 243 233 257 280 288 301 303 301 280 257 264 287
155 155 157 168 169 167 172 176 175 171 169 168 170 173 173 176 175 173 175 173 175 171 168 166 155 156 153 125 132 156 156 151 153 157 152 152 152 144 140 130 112 79 24 21 22 31 66 105 133 157 157 167 63 108 142 112 130 147 211 180 157 189 232 201 272 274 284 291 306 294 294 277 275 251
149 149 154 158 168 170 172 175 169 168 171 180 183 186 182 176 172 176 169 164 171 168 158 146 139 140 153 163 161 148 161 163 165 164 159 157 143 155 143 137 165 124 106 44 48 45 59 66 94 17 152 172 168 137 88 119 170 182 185 195 206 247 188 193 250 274 270 296 324 327 304 291 281 273
140 146 157 165 169 174 174 179 180 181 180 188 188 186 184 174 173 173 178 180 182 168 159 165 164 160 159 160 159 162 166 174 170 169 158 156 149 152 165 182 164 164 164 164 131 76 70 63 43 65 49 21 82 142 139 137 220 193 199 201 186 218 230 224 209 246 295 350 313 334 317 298 255 261
151 164 167 174 175 174 178 182 187 187 185 183 185 191 188 179 177 182 184 185 176 170 171 165 161 167 167 168 170 173 174 162 171 178 172 166 165 162 183 188 185 154 157 153 152 147 123 104 105 86 67 61 89 158 172 186 188 178 207 179 190 217 218 186 222 225 211 198 209 355 331 319 287 268
171 171 176 179 182 182 181 187 190 189 188 187 185 188 188 187 184 185 187 187 175 173 171 170 170 165 172 174 173 175 177 177 166 165 181 166 176 184 180 190 174 163 164 154 159 154 141 139 138 103 48 5 356 287 205 198 170 182 142 207 201 209 204 190 178 204 201 229 109 196 289 273 292 269
183 180 181 183 188 185 187 190 189 192 192 187 187 183 186 192 189 187 194 183 175 176 174 173 174 175 176 175 177 181 180 173 154 166 173 183 179 181 184 198 185 167 158 165 146 142 149 159 160 165 164 141 93 281 298 205 199 174 184 211 202 202 179 159 176 176 191 188 175 119 184 271 283 286
185 187 185 186 190 193 195 189 191 193 191 189 187 188 189 190 190 191 182 167 178 184 185 175 178 178 181 178 176 178 175 172 177 180 184 170 178 181 187 194 187 173 174 168 133 139 153 166 189 179 159 156 167 217 231 29 224 215 182 201 201 196 159 149 146 186 212 192 178 183 181 182 251 278
193 188 189 192 194 195 195 195 192 192 193 192 190 187 189 188 181 180 169 178 189 189 186 188 188 182 179 176 173 178 177 177 170 178 186 160 174 189 186 180 169 163 156 139 144 162 169 167 184 190 174 180 187 212 236 231 8 226 208 194 198 175 155 134 165 186 206 212 199 204 161 208 244 248
194 189 191 192 193 194 197 198 193 194 192 188 187 187 185 184 183 180 184 191 193 194 191 191 189 184 178 178 177 173 177 171 178 175 154 180 175 167 187 191 177 172 158 150 153 161 178 191 191 192 191 180 193 196 191 188 221 298 214 201 168 142 178 176 181 183 172 181 221 229 247 247 271 276
203 199 197 194 194 193 197 193 194 190 187 191 192 193 190 188 185 186 191 193 194 194 192 193 186 176 179 180 179 178 180 184 175 155 175 145 183 190 190 188 188 180 183 169 165 186 189 201 193 193 196 189 78 92 108 137 94 257 322 208 191 179 173 165 174 165 203 210 154 142 220 3 346 341
203 201 200 196 198 198 198 199 197 194 197 194 194 194 193 189 187 193 193 192 191 191 193 192 189 186 183 180 180 180 185 182 145 170 184 182 188 191 190 177 187 186 189 195 188 183 204 205 188 166 101 73 138 66 62 193 234 227 207 226 201 198 183 179 169 168 185 174 163 153 156 180 218 351
200 205 200 199 203 204 201 202 199 201 202 196 195 193 192 192 197 189 189 192 193 195 195 193 191 188 186 183 182 183 187 177 165 182 186 177 183 190 189 190 193 189 193 202 197 206 179 138 151 156 130 118 107 163 212 207 220 216 226 237 261 208 202 196 190 186 159 151 145 150 123 70 57 282
201 203 202 202 203 204 203 202 201 201 201 195 194 190 189 192 190 190 194 193 196 195 197 195 192 190 187 184 185 186 185 181 179 186 188 185 184 186 190 197 199 194 198 204 157 129 140 150 150 154 160 174 196 193 216 213 220 198 188 166 184 202 232 216 204 207 203 197 206 202 178 165 144 204
201 202 205 203 202 203 202 201 202 200 199 197 193 187 191 192 194 196 194 196 195 198 197 196 193 190 189 185 182 176 189 188 180 181 187 190 185 188 191 192 192 191 188 177 142 147 140 156 160 161 166 193 188 192 220 210 225 213 195 182 126 146 197 231 304 269 238 226 225 223 218 206 217 207
203 204 204 203 205 203 203 202 201 199 197 195 192 195 195 196 200 197 198 198 200 200 197 198 195 193 188 182 180 189 195 183 178 184 181 182 187 188 187 183 184 186 187 177 154 151 155 151 159 164 187 194 192 206 212 209 219 195 191 168 176 178 168 168 197 224 231 262 238 227 225 223 225 236